Regional Weather Roundup
Issued by NWS Sterling, VA

Home | Current Version | Previous Version | Text Only | Print | Product List | Glossary Off
Versions: 1 2 3 4 5 6 7 8 9 10 11 12 13 14 15 16 17 18 19 20 21 22 23 24 25 26 27 28 29 30 31 32 33 34 35 36 37 38 39 40 41 42 43 44 45 46 47 48 49 50

000
ASUS41 KLWX 291710
RWRLWX

REGIONAL WEATHER ROUNDUP
NATIONAL WEATHER SERVICE BALTIMORE MD/WASHINGTON DC
100 PM EDT MON JUN 29 2015

Note: "FAIR" indicates few or no clouds below 12,000 feet
with no significant weather and/or obstructions to visibility.
 TC=TEMPERATURE CELSIUS

 * =Non NWS site. Station does not report precipitation (e.g. rain,
    snow, etc.), thunder, or fog.

DCZ001-MDZ009-015-VAZ040>042-051-053>054-291800-
WASHINGTON METRO

CITY           SKY/WX    TMP DP  RH WIND       PRES   REMARKS
WASHINGTON NAT MOSUNNY   82  55  39 VRB5      29.97F
DULLES         MOSUNNY   78  53  41 VRB5      29.97F
ANDREWS AFB    SUNNY     79  60  52 SW7       29.97F
FT BELVOIR     SUNNY     79  51  36 VRB1      29.97F
QUANTICO       MOSUNNY   79  55  43 S7        29.98F
COLLEGE PARK*  MOSUNNY   79  54  41 NW3       29.96F
LEESBURG*      SUNNY     79  54  41 SW5       29.98S
MANASSAS*      SUNNY     79  50  36 CALM        N/A
GAITHERSBURG*  MOSUNNY   77  55  47 SW6       30.01S

$$

MDZ006>007-011-014-291800-
BALTIMORE METRO

CITY           SKY/WX    TMP DP  RH WIND       PRES   REMARKS
BWI AIRPORT    MOSUNNY   77  55  46 W5        29.95F
MD SCIENCE CTR   N/A     78  52  40 MISG      29.96F
MARTIN STATE   MOSUNNY   79  57  47 W7        29.96R
ANNAPOLIS      SUNNY     78  53  41 NW9       29.96S
FORT MEADE*    MOSUNNY   77  55  47 SW6       29.99S

$$

MDZ012-015-019>023-291800-
MARYLAND EASTERN SHORE

CITY           SKY/WX    TMP DP  RH WIND       PRES   REMARKS
OCEAN CITY     NOT AVBL
SALISBURY      MOSUNNY   78  55  44 W7G18     29.97F
BAY BRIDGE AP*   N/A     77  52  41 W7        29.96F
CAMBRIDGE*     SUNNY     79  54  41 SW5       29.97S
EASTON*        SUNNY     81  59  47 NW9       30.00F

$$

MDZ017>025-291800-
SOUTHERN MARYLAND

CITY           SKY/WX    TMP DP  RH WIND       PRES   REMARKS
PATUXENT RIVER MOSUNNY   79  55  43 VRB7      29.97F
ST INIGOES     SUNNY     78  54  43 W6        29.98S
LEONARDTOWN*   SUNNY     77  52  41 W7        29.99F

$$

MDZ003>005-291800-
NORTH CENTRAL MARYLAND

CITY           SKY/WX    TMP DP  RH WIND       PRES   REMARKS
FREDERICK*     PTSUNNY   79  63  57 W8        29.99F
HAGERSTOWN APT MOSUNNY   77  52  41 VRB6      29.96S
WESTMINSTER*     N/A     77  59  53 NW7       29.97S

$$

MDZ501>502-291800-
WESTERN MARYLAND

CITY           SKY/WX    TMP DP  RH WIND       PRES   REMARKS
OAKLAND*       MOSUNNY   68  55  64 SW3       30.03S
CUMBERLAND*    MOSUNNY   79  55  44 SE8       29.99F

$$

VAZ025>031-291800-
SHENANDOAH VALLEY

CITY           SKY/WX    TMP DP  RH WIND       PRES   REMARKS
WINCHESTER*    MOSUNNY   79  50  36 S3        29.97F
FRONT ROYAL*   FAIR      77  52  41 SW7       29.97F
LURAY*         FAIR      81  52  36 SW6       29.98F
NEW MARKET*    FAIR      77  50  38 SW8       29.96F
STAUNTON*      MOSUNNY   80  52  37 W10       30.01F
WAYNESBORO*    PTSUNNY   75  55  49 S3        30.01F

$$

WVZ021-048>050-054>055-291800-
EASTERN WEST VIRGINIA PANHANDLE

CITY           SKY/WX    TMP DP  RH WIND       PRES   REMARKS
MARTINSBURG    SUNNY     78  56  46 S6        29.97F
PETERSBURG*    SUNNY     77  42  28 CALM      29.97F

$$

VAZ036>039-050-291800-
CENTRAL FOOTHILLS

CITY           SKY/WX    TMP DP  RH WIND       PRES   REMARKS
CHARLOTTESVILL MOSUNNY   78  52  40 S8        29.98F
CULPEPER*      SUNNY     78  51  39 S7        29.99S
ORANGE*        SUNNY     81  54  39 S10       30.00F
GORDONSVILLE*  FAIR      79  54  41 S10       29.98F
WARRENTON*     FAIR      81  58  44 SW7       29.98F

$$

VAZ055>057-291800-
NORTH AND CENTRAL PIEDMONT

CITY           SKY/WX    TMP DP  RH WIND       PRES   REMARKS
FREDERICKSBRG* SUNNY     82  51  34 SE3       29.97F
STAFFORD*      SUNNY     77  49  36 CALM      30.02S

$$

NCZ024-NYZ072-PAZ021-071-VAZ022-071-291800-
OTHER REGIONAL OBSERVATIONS

CITY           SKY/WX    TMP DP  RH WIND       PRES   REMARKS
NEW YORK CITY  CLOUDY    74  56  53 VRB5      29.92F
PHILADELPHIA   MOSUNNY   74  53  48 W10G18    29.94S
PITTSBURGH     PTSUNNY   75  51  43 S9        29.95F
ROANOKE        PTSUNNY   75  56  51 SE8       30.02F
RICHMOND       MOSUNNY   81  52  36 SE7       29.99F
RALEIGH        MOSUNNY   83  60  45 VRB5      29.99F

$$

ANZ530>537-291800-
MARINE OBSERVATIONS

STATION/POSITION TIME  TEMP    WIND        PRES
                       AIR SEA DIR/SP/G
                 (UTC) (F)     (DEG/KT/KT) (MB)
THOMAS PT LIGHT  NOT AVBL
BALT KEY BRIDGE  1600   74     250/ 12/ 14 1014.3F
COVE POINT       1600   76     310/  4/  9 1016.0F
LEWISETTA        1600   76 77   90/  3/  4 1015.2F
SOLOMONS ISLAND  1600      79                N/A
PINEY POINT      1600          330/  7/  7   N/A

$$




USA.gov is the U.S. government's official web portal to all federal, state and local government web resources and services.